Flag for U.S.A. Weather past 2 weeks in Helena, Montana, U.S.A.

Now
74 °F

Sunny.


Feels Like: 76 °F
Forecast: 45 / 83 °F
Wind: No wind

Location: Helena Regional Airport

Current Time: Sep 16, 2014 at 4:06:43 PM

Latest Report: Sep 16, 2014 at 2:53 PM


Visibility: 10 mi

Pressure: 29.99 "Hg

Humidity: 28%

Dew point: 39 °F

Location of HelenaLocation

Historic Weather in Helena — Graph

°F

Helena temperature yesterday

Maximum temperature yesterday: 80 °F (at 4:53 PM)
Minimum temperature yesterday: 39 °F (at 7:53 AM)
Average temperature yesterday: 57 °F

Past Weeks' High & Low Weather Summary

 TemperatureHumidityPressure
High85 °F (Sep 7, 3:53 PM)90% (Sep 10, 4:53 AM)30.59 "Hg (Sep 10, 4:53 AM)
Low29 °F (Sep 12, 6:53 AM)9% (Sep 7, 3:53 PM)29.62 "Hg (Sep 3, 4:53 AM)
Average54 °F51%30.11 "Hg
* Reported Sep 1 2:53 PM — Sep 16 2:53 PM, Helena, Weather by CustomWeather, © 2014

Note: Actual official high and low records may vary slightly from our data, if they occured in-between our weather recording intervals... More about our weather records

Advertising

Helena weather history for previous 24 hours

 ConditionsComfort  
Time TempWeatherWind HumidityBarometerVisibility
2:53 PM
Sep 16
74 °FSunny.No wind28%29.99 "Hg10 mi
1:53 PM67 °FSunny.5 mph36%30.03 "Hg10 mi
12:53 PM65 °FPassing clouds.No wind39%30.06 "Hg10 mi
11:53 AM63 °FSunny.No wind40%30.07 "Hg10 mi
10:53 AM59 °FSunny.5 mph46%30.08 "Hg10 mi
9:53 AM56 °FSunny.No wind49%30.08 "Hg10 mi
8:53 AM50 °FSunny.No wind59%30.10 "Hg10 mi
7:53 AM43 °FClear.No wind76%30.11 "Hg10 mi
6:53 AM45 °FClear.3 mph68%30.07 "Hg10 mi
5:53 AM49 °FClear.No wind59%30.04 "Hg10 mi
4:53 AM49 °FClear.5 mph57%30.04 "Hg10 mi
3:53 AM46 °FClear.5 mph68%30.06 "Hg10 mi
2:53 AM50 °FClear.No wind57%30.06 "Hg10 mi
1:53 AM52 °FClear.No wind55%30.06 "Hg10 mi
12:53 AM54 °FClear.5 mph49%30.06 "Hg10 mi
11:53 PM
Sep 15
52 °FClear.6 mph53%30.07 "Hg10 mi
10:53 PM56 °FPassing clouds.3 mph49%30.07 "Hg10 mi
9:53 PM58 °FClear.No wind44%30.06 "Hg10 mi
8:53 PM64 °FClear.No wind38%30.06 "Hg10 mi
7:53 PM68 °FSunny.9 mph38%30.06 "Hg10 mi
6:53 PM76 °FSunny.6 mph25%30.02 "Hg10 mi
5:53 PM80 °FSunny.5 mph19%30.01 "Hg10 mi
4:53 PM80 °FSunny.5 mph20%30.02 "Hg10 mi
Weather by CustomWeather, © 2014

See weather overviewHow to use our weather pages